Weather Roundup
Issued by NWS Corpus Christi, TX

Home | Current Version | Previous Version | Text Only | Print | Product List | Glossary On
Versions: 1 2 3 4 5 6 7 8 9 10 11 12 13 14 15 16 17 18 19 20 21 22 23 24 25 26 27 28 29 30 31 32 33 34 35 36 37 38 39 40 41 42 43 44 45 46 47 48 49 50
000
ASUS44 KCRP 291310
HRRCRP

SOUTH TEXAS REGIONAL WEATHER ROUNDUP
NATIONAL WEATHER SERVICE CORPUS CHRISTI TX
800 AM CDT SAT APR 29 2017


TXZ229>244-291400-
...CORPUS CHRISTI AREA OBSERVATIONS...

CITY           SKY/WX    TMP DP  RH WIND       PRES   REMARKS
CORPUS CHRISTI PTSUNNY   79  75  87 SE25G32   29.57S
NAS CORPUS CHR CLOUDY    81  77  88 SE22G32   29.57S FOG
ROCKPORT       CLOUDY    79  75  87 SE24G32   29.59R FOG
KINGSVILLE NAS CLOUDY    81  77  88 SE18      29.56R FOG
ALICE          CLOUDY    79  73  82 SE15G24   29.54S HAZE
ORANGE GROVE   CLOUDY    79  75  87 W12G25    29.57R FOG
FALFURRIAS     CLOUDY    79  73  83 SE15G22   29.55R
$$

...VICTORIA AREA OBSERVATIONS...

CITY           SKY/WX    TMP DP  RH WIND       PRES   REMARKS
VICTORIA       CLOUDY    79  74  84 SE15      29.63R HAZE
BEEVILLE       CLOUDY    79  79  99 SE17G25   29.59R
PLEASANTON     CLOUDY    77  70  79 S10G16    29.62R HAZE
SAN ANTONIO    CLOUDY    77  70  79 SE16      29.62R
$$

...LAREDO AREA OBSERVATIONS...

CITY           SKY/WX    TMP DP  RH WIND       PRES   REMARKS
LAREDO         PTSUNNY   76  72  87 E14       29.53F
COTULLA        CLOUDY    78  70  76 SE10      29.58R
DEL RIO        CLOUDY    75  70  84 E9        29.54R
MCALLEN        CLOUDY    80  74  81 SE18G25   29.54R HAZE
HEBBRONVILLE   CLOUDY    75  70  85 S12G17    29.57R FOG
$$

...OTHER TEXAS OBSERVATIONS...

CITY           SKY/WX    TMP DP  RH WIND       PRES   REMARKS
BROWNSVILLE    CLOUDY    81  77  88 SE18G24   29.58R
HOUSTON        CLOUDY    79  73  82 SE23      29.69R HAZE
COL. STATION   CLOUDY    79  74  84 SE17G25   29.64S
AUSTIN         CLOUDY    80  71  74 SE21G26   29.61R HAZE
WACO           CLOUDY    77  73  87 S18G29    29.57S FOG
FORT WORTH     CLOUDY    79  72  79 S23G29    29.54R HAZE
WICHITA FALLS  CLOUDY    55  49  80 NE23G32   29.56F
LUBBOCK        LGT RAIN  46  43  89 N21G30    29.75R
EL PASO        CLOUDY    47  38  71 N8        29.85R
$$

...MARINE OBSERVATIONS...

STATION/POSITION TIME  SKY/WX   TEMP    WIND        PRES    VSBY  WAVE   SWELL
                                AIR SEA DIR/SP/G                  HT/PER HT/PER
                 (UTC)          (F)     (DEG/KT/KT) (MB)    (MI)  (FT/S) (FT/S)
PORT ARANSAS     1300            78 78  130/ 23/ 27 1001.5F
BUOY 90 E PORT A 1150            78 77  120/ 23/ 27 1003.3          8/ 8
BUOY 45 SE BAFFI 1150            78     140/ 19/ 23 1000.9          8/ 7
BUOY 200 E PT IS 1150            80 79  140/ 23/ 29 1005.6          9/ 8
BUOY 15 E GALVES 1150            77 76  140/ 23/ 29 1004.9          6/ 6   2/12
$$




USA.gov is the U.S. government's official web portal to all federal, state and local government web resources and services.